Location: Foligno
(42.9600°N, 12.7050°E)
Time: 06:59:00
(UTC+02:00)

ISS - Pass Details

Date: 19 May 2018
Orbit: 402 x 407 km, 51.6° (Epoch: 21 May)

Event Time Altitude Azimuth Distance (km) Brightness Sun altitude
Rises 04:05:28 0° 305° (NW) 2,319 -0.1 -14.9°
Reaches altitude 10° 04:07:40 10° 316° (NW) 1,458 -1.0 -14.6°
Maximum altitude 04:10:41 34° 23° (NNE) 690 -2.0 -14.3°
Drops below altitude 10° 04:13:42 10° 90° (E) 1,453 -0.4 -13.9°
Sets 04:15:53 0° 100° (E) 2,310 0.5 -13.6°
